This is the latest recevied weather packets stored in our database for station/object 4S6DRJ-13. If no packets are shown the sender has not sent any weather packets the latest 10 day(s).
| Time | Temp. | Humidity | Pressure | Rain* | Wind** | Luminosity | Snow |
|---|---|---|---|---|---|---|---|
| 1788013229 | 28.33° C | 82% | 1010 hPa | 0 mm | 0 m/s | 0 W/m² | - |
| 1788013169 | 28.33° C | 82% | 1009.9 hPa | 0 mm | 1.34 m/s, 174° | 0 W/m² | - |
| 1788013108 | 28.33° C | 82% | 1009.9 hPa | 0 mm | 0.89 m/s, 235° | 0 W/m² | - |
| 1788013046 | 28.33° C | 82% | 1009.9 hPa | 0 mm | 1.34 m/s, 270° | 0 W/m² | - |
| 1788012986 | 28.33° C | 82% | 1009.7 hPa | 0 mm | 0.89 m/s, 251° | 0 W/m² | - |
| 1788012924 | 28.33° C | 82% | 1009.8 hPa | 0 mm | 0.45 m/s, 249° | 0 W/m² | - |
| 1788012864 | 28.33° C | 82% | 1009.8 hPa | 0 mm | 0.89 m/s, 252° | 0 W/m² | - |
| 1788012803 | 28.33° C | 82% | 1009.8 hPa | 0 mm | 1.34 m/s, 243° | 0 W/m² | - |
| 1788012741 | 28.33° C | 82% | 1009.8 hPa | 0 mm | 1.34 m/s, 247° | 0 W/m² | - |
| 1788012680 | 28.33° C | 82% | 1009.7 hPa | 0 mm | 0.89 m/s, 174° | 0 W/m² | - |
| 1788012619 | 28.33° C | 82% | 1009.7 hPa | 0 mm | 1.79 m/s, 218° | 0 W/m² | - |
| 1788012559 | 28.33° C | 82% | 1009.8 hPa | 0 mm | 1.79 m/s, 226° | 0 W/m² | - |
| 1788012497 | 28.33° C | 82% | 1009.6 hPa | 0 mm | 0.89 m/s, 225° | 0 W/m² | - |
| 1788012446 | 28.33° C | 82% | 1009.8 hPa | 0 mm | 0.45 m/s, 321° | 0 W/m² | - |
| 1788012375 | 28.33° C | 82% | 1009.8 hPa | 0 mm | 0.89 m/s, 282° | 0 W/m² | - |
| 1788012314 | 28.33° C | 82% | 1009.7 hPa | 0 mm | 1.34 m/s, 294° | 0 W/m² | - |
| 1788012254 | 28.33° C | 82% | 1009.6 hPa | 0 mm | 1.79 m/s, 157° | 0 W/m² | - |
| 1788012192 | 28.33° C | 82% | 1009.6 hPa | 0 mm | 1.34 m/s, 248° | 0 W/m² | - |
| 1788012131 | 28.33° C | 82% | 1009.6 hPa | 0 mm | 0 m/s | 0 W/m² | - |
| 1788012070 | 28.33° C | 82% | 1009.7 hPa | 0 mm | 1.34 m/s, 263° | 0 W/m² | - |
| 1788012009 | 28.33° C | 82% | 1009.8 hPa | 0 mm | 0.89 m/s, 240° | 0 W/m² | - |
| 1788011948 | 28.33° C | 83% | 1009.5 hPa | 0 mm | 0.89 m/s, 305° | 0 W/m² | - |
| 1788011887 | 28.33° C | 83% | 1009.6 hPa | 0 mm | 3.13 m/s, 222° | 0 W/m² | - |
| 1788011827 | 28.33° C | 83% | 1009.6 hPa | 0 mm | 1.34 m/s, 57° | 0 W/m² | - |
| 1788011765 | 28.33° C | 83% | 1009.5 hPa | 0 mm | 0 m/s | 0 W/m² | - |
* Rain latest hour (hover to see other rain measurements)
** Current wind speed in m/s (hover to see current wind gust speed)